map of BGO home
BGO - Airport
Location
City:  Bergen, Norway
Name:Flesland
ICAO:ENBR
IATA:BGO

Details
Type:Airport (Aerodrome, Airfield)
Use:Public/Civil, International (customs port of entry)
Latitude:6017'36"N (60.293386)
Longitude:513'05"E (5.218142)
Datum:WGS 1984
Elevation:170 ft (52 m)
Variation:1.27E (WMM2015v2 magnetic declination)
0.22 annual change
Runways:1
Longest:9810 × 148 ft (2990 × 45 m), paved

Time
Time Zone:UTC+1 (DST+2)
Local Time:

Weather
METAR:ENBR 041420Z 12004KT 090V170 9999 VCSH FEW015 BKN025 03/00 Q1003 TEMPO 4000 RADZ BR BKN012 RMK WIND 1200FT 11016KT
TAF:ENBR 041100Z 0412/0512 12005KT 9999 -RA FEW010 BKN020
TEMPO 0412/0424 3000 RADZ BR BKN012 PROB40
TEMPO 0500/0505 BKN005

Related Locations
Nearby:
Farthest:NZTB: 11301 mi / 18188 km
Terra Nova Bay [Mario Zucchelli Station], AQ

Find:

   beyond  
but within

Other Information
Maps:
NOTAMs:
Links:
Sources:

  
  • flag of Norway
  

Airport Diagram

Airport diagram for BGO

Larger airport diagram (OBSOLETE) from NGA

Sectional Chart

Flight Planning
at skyvector.com

Satellite Image

Google Maps Satellite view

 

Copyright © 2004-2019 Karl L. Swartz. All rights reserved.
The Great Circle Mapper name and logo are trademarks of the Great Circle Mapper.
All other trademarks mentioned herein belong to their respective owners.
Please see credits for attibutions and further copyright information.

  Follow gcmap on Facebook Follow gcmap on Twitter GCmap on LinkedIn

hCard Microformat

Geo Microformat